Volver al catálogo

LICHUANHONG

ActivoCienciaSSO
NORAD 69542·PAYLOAD·🇨🇳 China
Este nombre de satélite aún no ha sido confirmado por fuentes oficiales.

Lanzado Jun 15, 2026 desde Jiuquan Satellite Launch Center

Loading…

Próximos Pases (próximas 24 horas)

TLE

ActualizadoSource: Space-Track

Época: Sep 14, 2026, 11:09 UTC

1 69542U 26134E   26257.46486534  .00003845  00000-0  24323-3 0  9991
2 69542  97.6975 327.9958 0016934 327.3125  32.7054 15.09507127 13776

Sigue LICHUANHONG en tiempo real con AllMySat

Download on the App Store